Regional Weather Roundup
Issued by NWS Kansas City/Pleasant Hill, MO

Home | Current Version | Previous Version | Graphics & Text | Print | Product List | Glossary Off
Versions: 1 2 3 4 5 6 7 8 9 10 11 12 13 14 15 16 17 18 19 20 21 22 23 24 25 26 27 28 29 30 31 32 33 34 35 36 37 38 39 40 41 42 43 44 45 46 47 48 49 50

126
ASUS43 KEAX 301610
RWREAX

WEATHER ROUNDUP FOR EASTERN KANSAS AND NORTHWEST MISSOURI
NATIONAL WEATHER SERVICE KANSAS CITY/PLEASANT HILL MO
1100 AM CDT MON MAY 30 2016

KSZ040-057-103>105-MOZ028-029-037-043-301700-
...KANSAS CITY METROPOLITAN AREA...

CITY           SKY/WX    TMP DP  RH WIND       PRES   REMARKS
K.C. INTL      PTSUNNY   80  67  64 S7        30.03F
K.C. DOWNTOWN  CLOUDY    83  66  56 SE7       30.01F
LEES SUMMIT    CLOUDY    78  67  68 SW5       30.04F
OLATHE - IXD   CLOUDY    79  67  66 SE8       30.04F
OLATHE - OJC   CLOUDY    76  67  73 S6        30.04F
LAWRENCE       SUNNY     80  68  66 VRB3      30.02F

$$

MOZ001>008-011>017-020>025-030>033-038>040-044>046-053-054-301700-
...NORTHERN AND CENTRAL MISSOURI...

CITY           SKY/WX    TMP DP  RH WIND       PRES   REMARKS
ST. JOSEPH     SUNNY     81  67  62 S6        30.02S
MOSBY          CLOUDY    79  68  69 S6        30.03F
WARRENSBURG    PTSUNNY   79  64  61 CALM      30.04F
WHITEMAN AFB   CLOUDY    80  67  65 S1        30.04F
CLINTON        CLOUDY    81  68  65 CALM      30.05F
SEDALIA        PTSUNNY   82  67  60 CALM      30.06F
WARSAW         NOT AVBL
CHILLICOTHE      N/A     82  68  62 SE5       30.04F
KIRKSVILLE     SUNNY     82  66  58 SW7       30.06F

$$

MOZ041-047>049-056>058-063>065-088>090-097-301700-
...EASTERN AND SOUTHERN MISSOURI...

CITY           SKY/WX    TMP DP  RH WIND       PRES   REMARKS
ST. LOUIS INTL PTSUNNY   86  63  45 W7        30.07F
SPIRIT OF STL  MOSUNNY   84  67  56 W5        30.06S
COLUMBIA       CLOUDY    82  66  58 S5        30.07S
JEFFERSON CITY CLOUDY    82  66  58 CALM      30.05F
ROLLA          SUNNY     80  64  58 CALM      30.07F
SPRINGFIELD    CLOUDY    81  60  48 VRB5      30.06F
BRANSON        CLOUDY    77  63  61 SE6       30.10F
JOPLIN         CLOUDY    75  67  76 SW7       30.07S
WEST PLAINS    SUNNY     80  64  58 SE5       30.11F

$$

IAZ060-094-KSZ022-034>040-054-083-096-NEZ052-066-093-301700-
...KANSAS...SOUTHEAST NEBRASKA AND IOWA...

CITY           SKY/WX    TMP DP  RH WIND       PRES   REMARKS
TOPEKA         SUNNY     79  66  64 S6        30.01F
MANHATTAN      SUNNY     77  63  61 S3        30.00F
EMPORIA        MOSUNNY   76  62  62 SW7       30.03F
CHANUTE        CLOUDY    74  64  71 S10       30.05S
WICHITA        MOSUNNY   78  58  49 SW5       30.03F
OMAHA          PTSUNNY   79  60  52 S8        29.99F
LINCOLN        MOSUNNY   76  63  64 E6        30.00F
FALLS CITY     SUNNY     81  68  64 S6        30.00S
LAMONI         SUNNY     79  66  64 SW8       30.03F
DES MOINES     MOSUNNY   80  61  52 CALM      30.01F

$$





USA.gov is the U.S. government's official web portal to all federal, state and local government web resources and services.